Voltar ao catálogo

COSMOS 1394

AtivoNavegaçãoLEO
NORAD 13381·PAYLOAD·🇷🇺 Russia

Lançado Jul 21, 1982 de Plesetsk Cosmodrome

Loading…

Próximas Passagens (próximas 24 horas)

TLE

AtualizadoSource: Space-Track

Época: Sep 14, 2026, 08:25 UTC

1 13381U 82073G   26257.35069775 -.00000025  00000-0 -65939-4 0  9995
2 13381  74.0165  31.7267 0013566  27.7013   0.6542 12.45193140  6933

Acompanhe COSMOS 1394 em tempo real com AllMySat

Download on the App Store